Terminal Aerodrome Forecast
Issued by NWS Portland, ME

Home | Current Version | Previous Version | Text Only | Print | Product List | Glossary On
Versions: 1 2 3 4 5 6 7 8 9 10 11 12 13 14 15 16 17 18 19 20 21 22 23 24
000
FTUS41 KGYX 270532
TAFPWM
TAF
KPWM 270532Z 2706/2806 02013G23KT P6SM SCT025 OVC060
     FM270700 01016G26KT 2SM -SN BKN015 OVC025
     FM271000 01025G35KT 1/2SM SN BLSN OVC004
     FM271200 01029G40KT 1/4SM +SN BLSN VV001
     FM271900 01030G45KT 1SM -SN BLSN OVC003=

USA.gov is the U.S. government's official web portal to all federal, state and local government web resources and services.